GW4719 Weather Reports


time (UTC)temp
F
wind
direction
speed
knots
gust
knots
rain 1hr
in
rain 24hr
in
rain mn
in
humidity
%
barometer
mb
20260503192501 58 343 3.5 7.8 0.00 0.00 0.00 27 1018.2
20260503191956 58 286 6.1 7.8 0.00 0.00 0.00 26 1017.9
20260503191454 59 121 1.7 2.6 0.00 0.00 0.00 27 1018.2
20260503190950 60 287 6.1 8.7 0.00 0.00 0.00 27 1018.1
20260503190447 58 291 2.6 3.5 0.00 0.00 0.00 27 1018.2
20260503185944 58 342 2.6 6.1 0.00 0.00 0.00 28 1018.3
20260503185441 61 357 4.3 7.0 0.00 0.00 0.00 26 1018.3
20260503184940 59 231 3.5 7.0 0.00 0.00 0.00 27 1018.4
20260503184437 58 287 2.6 6.1 0.00 0.00 0.00 25 1018.6
20260503183933 60 257 5.2 7.0 0.00 0.00 0.00 26 1018.6
20260503183430 58 224 2.6 7.8 0.00 0.00 0.00 26 1018.6
20260503182927 58 201 4.3 7.8 0.00 0.00 0.00 26 1018.7
20260503182426 57 217 7.0 11.3 0.00 0.00 0.00 27 1018.6
20260503181923 56 325 5.2 7.0 0.00 0.00 0.00 28 1018.8
20260503181420 57 254 3.5 6.1 0.00 0.00 0.00 27 1019.1
20260503180916 59 271 5.2 6.1 0.00 0.00 0.00 27 1018.7
20260503180414 58 246 2.6 3.5 0.00 0.00 0.00 27 1018.7
20260503175911 57 291 2.6 5.2 0.00 0.00 0.00 30 1019.1
20260503175409 57 250 2.6 6.1 0.00 0.00 0.00 28 1019.2
20260503174904 56 291 2.6 5.2 0.00 0.00 0.00 30 1019.0
20260503174403 55 359 1.7 3.5 0.00 0.00 0.00 31 1018.7
20260503173902 56 353 3.5 7.0 0.00 0.00 0.00 29 1018.7
20260503173359 58 304 2.6 8.7 0.00 0.00 0.00 29 1019.1
20260503172855 56 273 5.2 8.7 0.00 0.00 0.00 29 1019.0
20260503172353 56 308 6.1 7.0 0.00 0.00 0.00 30 1019.3
20260503171849 54 262 5.2 9.6 0.00 0.00 0.00 29 1019.3
20260503171346 54 289 5.2 7.8 0.00 0.00 0.00 32 1019.4
20260503170844 54 332 6.1 7.8 0.00 0.00 0.00 33 1019.4
20260503170340 55 320 4.3 5.2 0.00 0.00 0.00 33 1019.5
20260503150732 48 271 1.7 5.2 0.00 0.00 0.00 42 1020.3
20260503150228 47 307 2.6 6.1 0.00 0.00 0.00 45 1020.3
20260503140153 45 15 5.2 7.0 0.00 0.00 0.00 46 1020.4
20260503131122 43 20 6.1 7.0 0.00 0.00 0.00 50 1020.2
20260503130620 43 4 2.6 5.2 0.00 0.00 0.00 51 1020.2
20260503130117 43 269 3.5 6.1 0.00 0.00 0.00 50 1020.4
20260503110510 38 66 0.9 0.9 0.00 0.00 0.00 64 1019.2
20260503090355 38 12 0.9 1.7 0.00 0.00 0.00 68 1018.1
20260503081317 40 344 1.7 2.6 0.00 0.00 0.00 62 1017.6
20260503080813 40 352 2.6 2.6 0.00 0.00 0.00 63 1017.4
20260503080311 39 347 0.9 1.7 0.00 0.00 0.00 63 1017.5
20260503072747 40 13 1.7 2.6 0.00 0.00 0.00 62 1017.3
20260503072244 40 338 1.7 6.1 0.00 0.00 0.00 62 1017.4
20260503071740 40 1 0.9 1.7 0.00 0.00 0.00 62 1017.1
20260503071237 40 336 0.0 0.9 0.00 0.00 0.00 63 1017.2
20260503070733 40 342 0.9 3.5 0.00 0.00 0.00 62 1017.1
20260503070232 40 5 0.9 3.5 0.00 0.00 0.00 63 1017.0
20260503060150 40 112 0.9 0.9 0.00 0.00 0.00 72 1017.1
20260503054637 40 323 0.0 0.9 0.00 0.00 0.00 72 1017.0
20260503054135 40 323 0.0 0.9 0.00 0.00 0.00 73 1017.1
20260503053633 40 307 0.9 1.7 0.00 0.00 0.00 73 1016.8
20260503053131 40 307 0.0 0.9 0.00 0.00 0.00 72 1017.1
20260503052627 40 307 0.9 1.7 0.00 0.00 0.00 72 1016.8
20260503052124 40 307 1.7 1.7 0.00 0.00 0.00 72 1017.0
20260503051619 40 307 0.9 0.9 0.00 0.00 0.00 72 1017.2
20260503051117 40 307 1.7 1.7 0.00 0.00 0.00 71 1016.8
20260503050613 40 307 0.9 1.7 0.00 0.00 0.00 71 1017.0
20260503050110 40 307 0.9 1.7 0.00 0.00 0.00 69 1016.8
20260503045607 40 307 0.9 0.9 0.00 0.00 0.00 68 1017.2
20260503045104 40 307 0.0 0.9 0.00 0.00 0.00 68 1017.1
20260503044601 40 307 1.7 1.7 0.00 0.00 0.00 68 1017.1
20260503044059 41 307 0.9 0.9 0.00 0.00 0.00 68 1017.2
20260503043554 41 307 0.0 0.0 0.00 0.00 0.00 66 1017.3
20260503043051 41 307 0.0 0.0 0.00 0.00 0.00 65 1017.0
20260503042548 42 307 0.0 0.9 0.00 0.00 0.00 64 1017.4
20260503042045 42 307 0.0 0.0 0.00 0.00 0.00 64 1017.0
20260503041542 42 307 0.0 0.9 0.00 0.00 0.00 63 1017.2
20260503041039 42 307 0.9 0.9 0.00 0.00 0.00 62 1017.2
20260503040537 42 307 3.5 5.2 0.00 0.00 0.00 62 1017.1
20260503040034 42 355 1.7 1.7 0.00 0.00 0.00 63 1017.3
20260503035530 42 355 0.9 1.7 0.00 0.00 0.00 62 1017.2
20260503035028 42 355 0.9 2.6 0.00 0.00 0.00 62 1017.1
20260503034525 42 355 0.0 2.6 0.00 0.00 0.00 61 1017.2
20260503034022 42 355 0.9 1.7 0.00 0.00 0.00 60 1017.1
20260503033519 42 355 0.9 0.9 0.00 0.00 0.00 60 1017.1
20260503033018 42 355 0.9 0.9 0.00 0.00 0.00 60 1017.2
20260503032515 43 355 0.9 1.7 0.00 0.00 0.00 59 1017.2
20260503032013 42 355 0.9 1.7 0.00 0.00 0.00 59 1017.2
20260503031511 42 355 0.9 0.9 0.00 0.00 0.00 60 1016.7
20260503031007 43 355 0.9 0.9 0.00 0.00 0.00 59 1017.1
20260503030503 44 355 1.7 3.5 0.00 0.00 0.00 56 1017.1
20260503030000 43 335 2.6 5.2 0.00 0.00 0.00 56 1017.3
20260503025457 43 300 3.5 6.1 0.00 0.00 0.00 55 1017.3
20260503024955 43 305 1.7 3.5 0.00 0.00 0.00 55 1017.3
20260503024451 44 313 1.7 3.5 0.00 0.00 0.00 54 1017.3
20260503023948 43 284 3.5 6.1 0.00 0.00 0.00 54 1017.0
20260503023445 43 310 2.6 2.6 0.00 0.00 0.00 54 1017.1
20260503022942 44 314 1.7 1.7 0.00 0.00 0.00 52 1017.3
20260503022437 44 314 1.7 2.6 0.00 0.00 0.00 52 1017.0
20260503021933 44 312 1.7 5.2 0.00 0.00 0.00 51 1016.8
20260503021430 44 313 3.5 3.5 0.00 0.00 0.00 51 1016.8
20260503020927 44 282 2.6 2.6 0.00 0.00 0.00 51 1017.0
20260503020420 45 280 2.6 2.6 0.00 0.00 0.00 50 1016.7
20260503015915 45 279 0.9 0.9 0.00 0.00 0.00 48 1017.0
20260503015413 45 279 1.7 3.5 0.00 0.00 0.00 47 1016.8
20260503014908 45 282 1.7 2.6 0.00 0.00 0.00 48 1016.7
20260503014406 45 281 2.6 3.5 0.00 0.00 0.00 48 1016.8
20260503013904 46 328 1.7 5.2 0.00 0.00 0.00 48 1016.8
20260503013401 46 250 3.5 5.2 0.00 0.00 0.00 46 1016.7
20260503012858 46 316 1.7 2.6 0.00 0.00 0.00 48 1016.6
20260503012356 46 316 0.9 0.9 0.00 0.00 0.00 47 1016.6
20260503011852 46 316 0.9 1.7 0.00 0.00 0.00 46 1016.5
20260503011349 46 316 2.6 3.5 0.00 0.00 0.00 45 1016.4
20260503010845 47 296 1.7 2.6 0.00 0.00 0.00 44 1016.3
20260503010342 47 295 4.3 7.0 0.00 0.00 0.00 44 1016.5
20260503005839 47 261 0.9 5.2 0.00 0.00 0.00 43 1016.2
20260503005337 47 266 1.7 2.6 0.00 0.00 0.00 43 1016.2
20260503004833 48 252 2.6 3.5 0.00 0.00 0.00 42 1016.2
20260503004331 48 252 2.6 3.5 0.00 0.00 0.00 42 1015.9
20260503003828 48 247 2.6 5.2 0.00 0.00 0.00 41 1015.9
20260503003324 48 250 3.5 5.2 0.00 0.00 0.00 41 1015.9
20260503002821 47 256 3.5 5.2 0.00 0.00 0.00 43 1015.7
20260503002318 48 283 1.7 5.2 0.00 0.00 0.00 42 1015.8
20260503001814 47 300 3.5 6.1 0.00 0.00 0.00 42 1015.9
20260503001311 48 297 2.6 5.2 0.00 0.00 0.00 43 1015.8
20260503000809 48 307 1.7 6.1 0.00 0.00 0.00 42 1015.8
20260503000306 48 314 6.1 8.7 0.00 0.00 0.00 42 1015.7
20260502235803 48 280 1.7 2.6 0.00 0.00 0.00 43 1015.5
20260502235300 48 279 0.9 3.5 0.00 0.00 0.00 41 1015.6
20260502234756 49 296 5.2 8.7 0.00 0.00 0.00 40 1015.4
20260502234253 49 263 4.3 7.0 0.00 0.00 0.00 39 1015.3
20260502233749 49 257 7.8 11.3 0.00 0.00 0.00 39 1015.2
20260502233246 49 271 2.6 2.6 0.00 0.00 0.00 40 1015.1
20260502232742 49 306 6.1 8.7 0.00 0.00 0.00 38 1015.1
20260502232239 49 254 4.3 6.1 0.00 0.00 0.00 38 1015.2
20260502231736 49 275 3.5 6.1 0.00 0.00 0.00 38 1015.2
20260502231234 50 287 7.8 8.7 0.00 0.00 0.00 38 1015.1
20260502230732 50 289 5.2 7.0 0.00 0.00 0.00 38 1015.2
20260502230230 49 263 1.7 2.6 0.00 0.00 0.00 39 1015.1
20260502225726 49 302 4.3 7.8 0.00 0.00 0.00 38 1015.3
20260502225223 50 304 5.2 7.0 0.00 0.00 0.00 37 1015.2
20260502224719 50 293 3.5 7.0 0.00 0.00 0.00 39 1015.0
20260502224216 50 274 5.2 11.3 0.00 0.00 0.00 38 1015.0
20260502223714 50 274 1.7 2.6 0.00 0.00 0.00 41 1015.1
20260502223212 50 280 4.3 12.2 0.00 0.00 0.00 38 1015.0
20260502222709 50 285 4.3 9.6 0.00 0.00 0.00 38 1015.1
20260502222206 50 270 2.6 3.5 0.00 0.00 0.00 40 1015.0
20260502221701 50 296 6.1 11.3 0.00 0.00 0.00 39 1014.7
20260502221159 50 291 5.2 6.1 0.00 0.00 0.00 39 1014.8
20260502220655 50 300 5.2 11.3 0.00 0.00 0.00 38 1014.7
20260502220151 51 276 4.3 7.8 0.00 0.00 0.00 39 1014.6
20260502215648 51 286 5.2 13.9 0.00 0.00 0.00 38 1014.6
20260502215145 51 305 3.5 5.2 0.00 0.00 0.00 41 1014.5
20260502214642 51 273 5.2 11.3 0.00 0.00 0.00 38 1014.7
20260502214139 51 323 6.1 8.7 0.00 0.00 0.00 39 1014.7
20260502213637 51 327 2.6 7.0 0.00 0.00 0.00 40 1014.7
20260502213134 52 335 6.1 8.7 0.00 0.00 0.00 38 1014.4
20260502212627 52 298 3.5 3.5 0.00 0.00 0.00 38 1014.7
20260502212125 52 313 4.3 7.0 0.00 0.00 0.00 38 1014.5
20260502211620 51 302 3.5 5.2 0.00 0.00 0.00 41 1014.3
20260502211117 51 300 5.2 8.7 0.00 0.00 0.00 39 1014.6
20260502210615 53 240 5.2 8.7 0.00 0.00 0.00 38 1014.6
20260502210112 54 285 4.3 7.8 0.00 0.00 0.00 38 1014.6
20260502205608 55 338 2.6 5.2 0.00 0.00 0.00 37 1014.6
20260502205105 55 310 1.7 5.2 0.00 0.00 0.00 37 1014.6
20260502204602 54 336 3.5 3.5 0.00 0.00 0.00 39 1014.6
20260502204100 55 308 4.3 8.7 0.00 0.00 0.00 36 1014.5
20260502203556 56 283 8.7 9.6 0.00 0.00 0.00 35 1014.4
20260502203054 55 265 5.2 7.0 0.00 0.00 0.00 36 1014.6
20260502202549 55 334 5.2 12.2 0.00 0.00 0.00 35 1014.7
20260502202048 55 310 4.3 8.7 0.00 0.00 0.00 37 1014.8
20260502201543 55 317 10.4 13.0 0.00 0.00 0.00 35 1014.5
20260502201040 54 307 5.2 11.3 0.00 0.00 0.00 38 1014.7
20260502200536 54 339 7.8 13.0 0.00 0.00 0.00 37 1014.6
20260502200034 56 316 5.2 7.8 0.00 0.00 0.00 35 1014.5
20260502195531 55 313 3.5 5.2 0.00 0.00 0.00 39 1014.6
20260502195027 55 315 6.1 8.7 0.00 0.00 0.00 37 1014.7
20260502194524 56 300 7.0 11.3 0.00 0.00 0.00 38 1014.8
20260502194020 58 300 6.1 8.7 0.00 0.00 0.00 38 1014.6
20260502193518 58 283 4.3 9.6 0.00 0.00 0.00 34 1015.0
20260502193014 56 290 4.3 9.6 0.00 0.00 0.00 36 1015.0